Theta_e
310 310 310 310 310 310 311 311 312 312 312 312 312 312 311 309 308 308 308 306 306 306 307 307 307 307 307 307 307 308 308 309 309 309 310 313 312 312 313 313 322 325 321 319 319 319 317 316 318 321 332 340 343 345 347 346 347 352 356 356 356 363 365 360 357 355 356 356 355 356 353 356 357 355 354 354 352 350 350 349 348 349 348 349 349 350 349 349
310 310 310 310 310 310 310 310 311 311 312 312 312 312 312 311 309 309 308 307 306 306 306 307 307 307 307 307 307 308 308 309 309 310 311 312 312 312 312 313 321 325 322 320 319 318 316 317 322 327 337 341 340 342 344 344 345 353 357 356 361 368 363 355 355 355 355 356 356 357 356 357 357 354 354 354 353 350 350 350 349 349 349 350 350 350 350 351
310 310 310 310 310 310 310 310 310 310 311 312 312 312 312 313 311 309 309 308 306 306 306 307 307 307 307 307 307 308 308 309 309 311 312 312 312 312 313 312 318 323 322 321 320 317 316 321 330 337 340 340 339 340 342 345 348 352 353 358 366 364 357 354 355 355 355 356 357 357 356 357 356 354 354 353 352 350 350 350 350 350 350 351 351 351 351 352
311 311 311 311 311 311 311 310 310 310 310 311 312 311 311 313 313 311 309 308 307 306 306 307 307 306 307 307 307 308 308 310 312 313 316 315 313 312 313 312 314 320 321 321 320 317 316 318 328 338 340 338 339 341 342 345 350 352 352 359 363 357 358 359 355 356 356 356 357 357 356 356 355 354 353 352 353 352 351 350 350 350 351 351 351 351 351 351
313 313 313 313 312 312 312 311 311 310 311 310 311 311 311 312 313 312 310 309 307 306 306 306 306 306 307 307 307 307 308 317 321 319 321 320 317 313 312 314 313 316 319 320 319 317 317 315 322 335 339 338 340 343 343 345 348 348 348 353 354 354 360 359 355 357 356 356 357 356 357 356 354 353 351 351 353 352 350 350 350 350 350 351 351 351 351 352
314 314 313 313 313 313 313 312 312 311 311 311 311 311 311 311 313 313 310 309 308 306 306 306 306 306 307 306 307 307 310 321 326 322 323 321 320 315 312 314 315 314 316 319 319 318 319 320 326 333 336 337 341 343 343 342 343 343 343 347 349 354 360 357 356 358 357 358 357 355 356 354 353 353 351 351 352 351 350 350 351 351 350 350 351 351 351 351
314 313 313 313 313 313 313 313 312 312 311 311 311 311 311 311 312 313 311 310 309 307 306 306 307 306 307 306 307 307 308 317 325 324 322 320 320 316 312 314 316 314 314 317 319 320 322 325 329 331 332 336 338 340 340 336 337 339 339 347 352 355 359 357 358 358 358 358 355 354 354 353 354 354 352 352 353 351 350 351 351 351 351 351 351 352 351 351
314 314 314 314 314 314 313 313 313 312 311 311 311 311 311 311 312 313 312 310 309 307 306 306 307 306 306 306 306 308 307 314 324 324 321 320 318 314 312 313 315 313 314 317 318 321 326 328 331 330 330 335 334 334 336 331 332 333 334 346 352 356 359 357 358 358 358 357 354 354 353 354 354 353 353 354 354 352 350 351 351 352 351 352 352 352 352 352
314 315 315 315 315 315 314 313 313 313 312 311 311 311 311 311 312 313 311 310 309 308 307 307 307 306 306 306 306 308 310 314 320 323 322 322 321 318 314 312 314 313 314 317 318 323 328 330 331 331 331 333 333 333 332 330 330 329 332 344 350 356 359 357 359 359 358 354 352 353 352 354 354 353 355 355 353 351 351 351 351 352 352 352 352 352 352 352
315 315 315 316 315 315 315 313 313 313 313 312 311 311 311 312 313 312 311 310 309 309 308 307 307 307 306 306 307 309 316 320 321 325 326 326 326 324 319 313 313 312 314 316 317 324 331 332 331 331 333 333 333 332 330 330 328 326 334 346 351 357 360 358 358 359 358 354 351 352 352 353 353 354 358 355 352 351 350 351 351 352 352 352 352 352 352 351
315 316 316 316 316 315 315 313 313 313 313 313 311 311 311 312 313 312 311 310 310 310 309 309 307 308 307 307 307 309 320 327 326 328 328 327 326 325 324 319 313 312 314 316 318 327 334 333 332 332 332 332 331 329 327 326 323 330 343 351 354 358 358 357 358 358 358 355 352 352 352 354 353 354 357 354 352 351 350 351 351 351 352 352 352 351 351 351
316 316 315 315 315 315 314 313 313 313 313 313 312 312 312 312 312 311 311 311 311 311 310 310 308 309 308 307 307 310 323 330 328 328 326 325 323 322 323 322 317 313 314 317 323 332 334 332 332 333 332 332 331 326 325 323 326 339 350 354 357 358 357 357 358 357 357 357 355 353 354 356 356 353 353 353 352 350 350 351 351 351 351 351 351 351 351 350
316 315 315 315 314 314 313 313 313 313 313 313 312 312 313 312 311 311 311 311 311 310 310 310 309 309 307 308 309 311 321 325 325 327 324 323 321 318 319 320 318 314 313 319 329 335 334 333 332 333 333 332 332 328 325 324 337 350 349 353 359 358 358 358 357 357 357 357 354 354 355 356 358 354 351 353 352 349 350 350 350 350 350 351 351 351 350 350
315 315 315 314 314 314 313 313 313 313 313 313 313 313 313 311 311 311 311 310 310 309 309 309 309 308 308 309 310 312 316 319 323 326 325 323 320 318 317 318 317 314 313 318 328 332 332 333 331 332 332 332 333 329 324 324 338 351 350 354 360 358 358 358 356 357 358 357 353 355 358 357 358 354 352 353 351 349 349 349 349 350 350 350 350 351 350 350
315 315 315 315 315 315 314 313 313 313 313 313 313 313 312 311 311 311 311 310 310 310 309 309 311 312 313 313 311 314 318 320 323 324 325 324 321 318 316 316 317 314 312 316 323 327 330 331 330 329 329 331 330 326 327 325 330 347 355 355 357 357 358 359 357 357 358 357 353 354 357 357 357 354 352 352 350 349 349 349 349 349 349 350 350 350 350 350
315 315 314 315 315 315 313 313 314 313 314 313 313 313 312 311 311 311 311 311 311 310 309 312 314 315 317 317 314 319 321 321 323 324 324 323 321 319 316 316 317 313 312 315 320 324 330 330 328 328 328 328 326 327 331 325 326 340 353 355 354 355 358 359 358 356 356 357 354 354 358 359 358 355 352 351 350 350 349 350 349 349 349 349 349 349 349 348
315 315 314 314 315 316 314 313 313 313 313 313 313 314 314 315 315 315 314 312 312 311 310 312 313 315 317 316 317 322 323 323 325 325 325 324 322 318 316 316 314 313 313 315 318 321 326 327 326 327 326 326 325 328 327 320 325 333 341 354 355 352 356 358 359 357 355 356 355 356 359 361 358 354 350 349 351 351 350 351 350 349 348 348 349 349 348 347
315 315 314 314 315 316 315 313 313 313 313 315 316 316 318 320 321 321 318 316 315 314 315 314 313 318 319 315 318 321 321 324 325 326 326 324 322 319 316 316 314 315 316 317 319 320 324 325 324 326 326 325 324 327 324 319 326 328 333 349 351 350 356 357 358 358 356 356 357 356 358 359 357 354 351 350 351 351 350 351 350 349 348 348 348 348 347 347
315 315 315 314 315 317 316 313 313 314 315 316 316 317 320 321 322 324 322 319 319 318 320 318 317 321 320 318 320 321 321 323 324 325 325 324 322 320 319 318 318 318 318 320 322 322 323 324 324 325 325 326 325 324 324 323 327 326 329 343 346 348 354 355 357 357 356 357 358 356 356 358 358 355 352 351 350 351 351 350 350 349 348 348 348 348 347 346
315 315 315 315 315 317 316 314 314 315 315 316 316 317 319 319 321 324 322 320 319 318 319 318 318 319 319 320 322 321 321 323 324 324 323 323 322 321 321 321 320 320 321 324 325 323 323 325 326 326 325 327 326 324 323 323 324 323 323 333 343 349 351 353 356 356 355 357 357 356 356 358 358 354 353 352 350 350 351 351 350 350 349 348 347 347 347 346
316 315 315 315 315 317 316 314 314 316 316 317 317 317 317 317 320 321 319 318 319 317 317 318 318 318 319 321 320 320 321 322 323 323 322 323 323 322 322 322 322 321 323 323 324 324 324 326 326 326 326 325 324 323 321 320 320 321 320 324 334 345 350 351 355 357 354 356 356 356 358 359 356 353 353 354 351 350 351 351 350 350 350 348 347 347 346 345
315 315 315 315 316 317 317 316 316 317 318 318 318 318 318 318 319 319 318 317 318 318 317 317 318 319 319 320 320 320 321 322 323 322 323 323 323 324 323 323 323 323 324 322 324 325 325 326 326 324 324 323 323 321 320 320 320 320 320 320 321 332 349 353 355 358 353 355 356 357 359 359 356 353 352 354 352 350 351 351 350 350 349 348 347 347 346 344
315 316 315 316 317 317 318 319 319 319 319 319 319 319 318 318 318 319 318 318 318 319 319 317 318 319 319 319 319 320 321 323 323 322 324 324 324 324 322 323 323 323 323 324 326 325 325 327 326 322 321 322 324 322 321 320 320 320 319 319 317 327 353 359 357 357 353 352 355 357 360 359 356 355 353 353 353 351 350 350 350 350 350 349 347 347 346 344
316 315 315 316 318 317 318 319 320 319 318 319 319 319 318 318 319 319 319 319 319 319 319 319 319 319 319 319 319 321 322 322 322 323 324 325 324 323 323 323 323 323 324 325 326 325 326 327 324 322 322 323 324 323 322 320 320 320 318 319 318 327 352 356 352 353 353 355 355 355 357 356 356 357 356 354 352 350 349 350 351 351 352 351 348 347 345 343
316 315 315 316 317 318 318 319 320 319 318 319 319 319 319 318 319 319 319 321 323 323 319 319 321 320 319 319 319 320 322 322 323 324 324 324 324 323 322 323 323 325 325 324 324 324 325 323 321 323 323 323 323 323 323 320 320 319 319 322 317 328 354 353 349 353 355 357 355 352 352 353 355 357 357 354 351 351 350 350 351 352 353 352 350 347 344 343
316 316 316 315 316 317 318 320 320 319 319 320 319 320 319 319 320 318 321 325 325 323 318 316 318 319 317 318 319 320 321 322 322 323 324 324 325 323 322 323 322 325 325 323 323 324 324 322 321 324 324 323 323 323 323 321 320 318 322 324 317 334 355 352 350 353 350 351 352 351 352 352 354 355 356 354 352 352 351 351 351 352 353 352 350 347 343 342
316 316 315 316 316 316 317 318 319 319 320 320 319 320 319 320 320 318 324 327 321 316 315 314 315 316 316 316 318 319 319 320 320 322 324 324 324 323 324 325 322 322 323 321 321 322 323 322 322 323 323 323 323 322 322 321 320 319 325 325 319 339 355 351 351 350 346 350 353 352 352 352 352 353 355 355 354 354 353 353 352 351 352 352 351 348 344 342
317 316 316 316 315 316 317 316 317 319 319 319 320 320 320 323 321 320 324 323 316 313 314 313 315 315 316 316 317 319 318 318 319 321 323 323 324 323 324 326 325 324 324 322 321 322 322 322 323 323 323 323 322 322 323 321 321 322 328 324 321 339 352 350 349 348 349 352 352 352 349 349 353 355 357 357 356 356 354 354 354 351 351 352 351 349 346 343
316 316 316 316 316 316 316 316 317 318 318 319 320 321 323 322 321 324 327 320 313 314 315 313 315 315 315 316 316 318 318 317 318 320 322 323 323 323 324 325 324 324 323 322 323 323 322 322 321 322 322 322 322 322 322 321 322 323 324 323 327 341 348 348 347 347 350 352 351 350 346 346 353 355 357 359 357 357 355 354 354 353 351 351 351 350 348 346
316 317 316 316 316 316 316 317 317 317 318 319 321 324 323 322 326 328 323 316 313 314 315 314 315 315 316 317 316 317 317 317 318 321 323 323 323 322 323 323 322 325 325 323 323 322 321 321 322 321 321 322 322 322 320 320 322 322 322 323 328 340 347 349 346 343 347 348 345 347 346 343 347 351 355 358 357 356 355 355 355 354 352 350 351 350 347 347
316 317 316 317 317 316 317 317 317 318 318 320 323 324 320 324 334 330 317 313 315 314 314 316 316 316 316 317 317 317 316 317 319 323 324 323 323 321 322 323 323 325 327 325 322 322 320 320 323 324 321 321 321 322 320 319 321 321 326 330 326 330 341 344 340 338 344 346 341 345 348 340 342 349 353 355 356 355 354 355 355 354 353 351 351 350 347 346
315 316 316 317 316 317 317 317 319 320 318 321 323 322 324 326 327 323 317 315 315 314 314 316 316 316 316 316 317 316 317 317 318 323 324 323 323 323 323 326 325 322 323 325 323 322 323 324 325 325 323 322 321 322 321 320 322 321 328 333 324 323 334 340 338 337 341 342 338 343 345 341 345 350 350 352 354 355 354 354 355 355 354 352 351 351 348 346
314 315 316 317 316 317 317 318 320 320 320 323 320 322 333 331 319 318 319 316 314 314 316 317 316 315 315 315 316 317 316 317 318 321 320 320 322 322 323 325 324 321 323 326 322 320 324 324 325 325 324 324 322 321 321 321 323 322 324 329 325 323 329 334 337 336 336 336 337 342 344 345 350 348 347 349 349 352 354 353 355 355 354 354 351 351 350 348
312 315 316 316 317 317 318 320 320 321 322 321 321 326 330 324 320 321 319 314 316 317 316 317 317 317 316 316 316 316 316 316 318 318 319 321 320 323 331 328 319 320 323 322 321 320 321 323 328 327 324 325 324 321 324 326 326 326 329 330 328 329 329 328 333 334 333 336 340 344 344 346 349 345 345 347 346 350 354 353 354 355 354 354 352 352 351 349
312 315 315 316 318 317 319 321 320 322 322 320 329 334 324 318 322 322 315 314 317 317 317 317 318 319 318 317 317 316 315 316 317 318 319 320 317 321 333 329 317 320 321 319 322 323 320 323 330 326 321 324 325 322 326 329 326 325 329 328 325 330 332 328 328 331 333 341 349 350 346 347 351 348 345 347 348 351 353 352 354 353 353 354 352 352 352 351
313 314 315 317 318 318 320 321 321 323 321 322 333 332 323 320 322 318 316 318 317 317 320 318 317 318 318 319 319 318 316 317 319 321 319 318 317 317 322 321 316 318 319 320 324 323 320 324 328 325 324 325 324 325 327 326 326 326 325 326 327 329 331 327 324 329 337 345 350 349 348 350 352 349 346 348 351 351 351 351 351 352 353 353 352 352 352 352
314 315 316 318 318 319 320 320 321 321 319 326 333 330 326 324 319 317 320 319 316 318 322 320 317 317 317 318 319 318 318 318 320 322 320 318 318 316 316 318 317 316 318 320 322 321 320 324 327 325 326 325 322 324 326 322 326 330 325 328 331 326 330 332 326 331 343 348 346 344 346 350 350 348 347 349 350 348 348 349 349 350 352 351 352 353 352 352
315 316 318 319 319 319 320 320 320 319 322 331 333 330 330 324 316 317 318 315 316 320 322 320 318 317 318 319 318 318 319 320 320 323 322 319 319 318 316 317 317 316 316 317 320 321 320 323 328 327 324 324 324 324 327 325 325 329 327 329 330 325 327 330 325 330 344 349 347 343 344 346 348 348 349 348 347 346 345 346 346 348 350 349 350 352 352 352
315 318 320 319 319 319 319 320 320 319 325 332 333 330 326 322 318 317 316 316 318 322 322 320 318 319 319 319 319 319 318 318 319 323 322 320 319 318 315 316 318 316 315 318 320 321 321 323 327 329 323 322 326 326 326 327 325 327 328 327 328 330 330 327 324 333 346 350 347 345 344 348 350 349 348 346 344 345 344 343 343 345 348 348 349 350 350 351
317 320 321 320 320 320 319 320 320 321 324 326 331 330 322 318 318 316 316 317 317 320 321 319 320 321 320 320 319 319 319 318 318 320 320 317 317 317 315 315 317 316 316 319 319 320 325 324 322 328 328 322 324 324 322 325 326 326 328 325 324 326 327 324 322 330 345 350 347 347 347 348 348 347 345 344 342 343 343 341 341 342 344 346 347 348 349 350
319 322 322 320 321 320 319 320 319 320 323 324 325 326 320 318 318 316 317 317 317 318 319 319 322 321 320 321 320 319 321 320 319 319 318 317 317 318 316 314 315 316 317 320 321 319 323 325 322 325 326 321 323 324 321 323 326 326 325 323 323 323 323 324 321 324 341 347 344 346 348 346 345 344 343 342 341 341 340 340 341 340 342 346 347 347 348 350
320 323 323 320 321 320 318 321 320 318 321 323 322 321 319 318 317 315 315 316 317 318 318 320 321 321 322 321 320 322 324 321 320 320 318 316 317 316 315 315 314 316 318 319 319 318 322 327 326 324 324 322 323 323 321 321 323 325 322 319 323 324 325 328 325 326 338 343 341 345 348 345 343 342 341 340 340 339 339 340 339 339 341 344 346 347 348 349
321 323 322 320 321 320 318 321 322 322 322 320 317 317 316 315 315 315 315 315 317 317 318 319 318 319 321 319 320 324 325 321 319 321 320 318 318 316 316 318 317 316 318 318 318 320 325 327 326 329 335 334 329 326 324 323 323 325 325 321 320 320 323 330 333 337 343 345 346 349 348 345 343 341 340 340 339 339 339 339 338 338 338 341 343 345 346 347
322 322 320 319 320 319 318 319 322 328 328 320 314 315 315 313 314 315 314 315 316 315 318 319 317 318 319 318 320 321 322 321 319 320 321 319 316 315 317 319 320 320 320 320 320 321 324 327 330 335 336 334 333 332 327 325 326 327 327 323 320 320 324 330 337 346 346 342 346 351 348 345 343 341 340 339 340 340 338 338 337 337 337 339 341 342 343 344
323 323 319 317 318 317 318 317 318 325 326 321 317 317 315 314 314 315 314 314 314 316 318 318 316 319 320 321 322 320 321 324 322 322 323 321 318 317 318 318 320 324 324 323 323 323 325 330 336 339 333 326 327 329 326 325 326 326 324 321 320 322 324 328 336 347 347 340 343 348 346 344 343 341 341 339 339 339 337 336 336 335 336 337 338 340 341 342
324 325 322 320 317 314 316 315 314 319 323 325 323 316 314 316 314 315 315 314 315 316 318 319 319 321 322 323 326 325 323 325 325 324 324 324 321 317 317 319 319 321 323 319 319 327 332 330 333 338 334 329 331 334 333 329 323 320 319 320 322 324 330 338 341 344 346 344 344 345 344 345 344 341 341 339 337 337 335 335 335 335 335 336 336 338 339 340
324 324 322 325 322 316 316 315 313 316 318 321 320 315 314 316 315 317 316 315 316 317 319 320 320 323 323 324 327 328 328 328 327 325 324 325 326 320 316 319 318 317 320 317 315 329 338 329 325 331 329 326 332 333 329 325 319 317 319 322 325 328 338 348 343 338 341 344 344 344 343 344 344 341 340 338 337 336 334 334 335 335 335 335 334 335 337 338
325 322 321 326 324 317 318 318 316 317 319 320 320 316 316 316 316 318 317 316 317 318 322 323 320 320 323 325 330 328 328 330 326 324 325 324 327 326 319 318 318 316 318 319 317 325 335 328 322 327 326 321 323 322 320 322 321 321 323 323 327 334 342 346 343 341 344 345 344 344 342 343 342 340 338 337 335 334 333 333 335 335 335 335 334 333 334 336
322 323 322 326 325 321 321 320 316 318 324 329 327 318 315 316 316 315 315 319 320 318 321 323 318 317 318 324 332 328 324 327 323 320 322 321 323 325 321 319 319 315 317 321 319 320 327 327 322 326 327 321 319 320 319 322 324 325 326 324 328 337 343 343 342 342 345 344 342 342 343 342 340 338 337 335 333 333 333 334 334 334 334 333 333 332 332 333
320 325 324 326 329 327 325 321 317 318 321 326 324 317 315 317 316 314 315 318 320 318 320 321 319 317 316 320 325 322 319 324 322 315 317 320 320 321 322 319 318 317 319 322 321 319 321 323 325 330 330 321 320 322 320 322 327 328 328 326 326 332 340 342 342 342 343 342 340 341 342 341 337 335 335 334 333 333 333 333 333 332 332 332 331 331 331 332
320 325 325 328 333 331 327 322 320 321 320 321 323 320 320 319 317 316 315 314 317 320 320 320 319 319 320 320 320 317 315 319 320 314 314 317 316 316 319 317 316 320 320 319 322 324 323 324 328 335 334 322 319 324 323 323 326 328 329 327 324 328 336 340 340 342 343 341 340 341 343 340 335 333 333 332 332 332 332 331 331 330 330 330 329 328 329 329
320 323 324 329 332 330 327 324 321 321 318 318 322 322 320 318 315 315 315 313 315 318 318 318 317 318 321 319 317 315 313 315 316 313 312 315 314 314 315 315 315 318 319 320 324 326 326 326 325 329 332 324 320 326 328 326 328 331 329 323 321 329 339 341 340 340 340 340 341 343 343 338 333 333 333 333 331 331 330 330 329 329 328 327 326 326 326 327
Wind_Speed
14 13 13 13 13 13 13 12 11 10 9 9 9 9 8 8 7 8 8 9 9 8 8 9 9 9 9 9 8 7 8 11 12 16 17 10 8 11 11 14 17 16 18 21 20 19 18 18 16 15 13 12 11 11 13 13 11 6 2 1 2 2 3 4 5 6 6 8 9 12 14 10 8 8 11 16 16 19 17 12 13 13 20 23 26 33 32 31
14 14 14 13 13 13 13 13 12 11 10 9 9 8 9 8 8 8 9 9 9 9 8 8 8 9 9 9 9 8 9 10 13 18 14 7 10 14 14 17 19 18 18 20 21 21 21 21 19 17 16 12 9 9 8 9 12 8 2 1 3 3 2 4 9 10 10 11 11 12 12 10 9 10 14 13 13 17 15 14 21 23 24 25 30 33 31 32
15 15 14 14 13 13 12 12 12 12 11 10 9 8 8 8 9 9 9 10 9 9 8 8 8 8 9 8 9 9 9 9 13 16 10 9 12 14 15 18 21 20 18 18 20 20 20 21 21 19 17 11 9 10 6 6 10 9 5 1 4 5 1 7 15 14 15 17 13 11 12 12 10 10 12 13 14 14 11 15 22 26 28 30 33 33 33 33
15 15 14 14 13 13 12 12 11 11 10 10 9 9 8 7 8 8 9 11 10 9 8 7 7 8 8 8 8 9 9 9 9 10 8 9 11 13 17 19 21 21 18 16 18 19 18 18 20 20 16 8 9 9 6 8 8 7 7 3 3 4 2 8 18 18 20 20 16 13 12 11 10 10 13 18 14 7 12 21 26 32 35 35 35 35 35 33
16 16 15 15 14 13 12 12 11 10 9 9 9 8 8 8 7 7 8 10 10 9 8 7 7 7 7 7 7 8 6 5 4 8 7 7 9 12 17 19 20 20 18 16 18 19 17 17 19 16 11 5 5 4 6 12 10 4 6 5 3 4 3 10 20 23 23 20 17 14 10 9 9 10 17 19 10 7 18 28 32 38 40 38 38 37 35 34
17 17 16 16 15 15 13 12 11 10 8 7 7 7 7 8 8 7 7 8 10 9 8 7 7 6 6 6 8 7 4 1 7 11 7 7 9 11 16 20 19 19 20 19 19 19 18 17 17 13 7 3 4 5 7 11 12 5 5 5 6 7 7 14 22 24 24 20 16 13 12 12 9 9 15 13 6 10 22 29 33 38 40 39 38 37 36 35
17 17 17 17 17 16 15 13 12 11 9 7 6 6 7 7 8 7 6 7 9 9 7 7 7 7 6 6 7 6 8 6 8 10 6 6 8 10 16 21 20 20 23 22 22 22 21 18 17 14 7 3 4 7 10 10 11 8 4 3 7 9 11 19 24 24 24 20 16 15 15 13 10 9 9 6 6 14 23 29 33 35 37 37 36 36 36 35
17 17 18 18 18 18 16 15 13 12 11 8 6 6 7 7 7 7 7 7 7 7 6 6 6 7 6 6 6 6 10 7 7 7 5 5 7 10 16 22 21 21 24 25 25 25 23 21 20 15 5 5 6 6 9 8 7 8 6 3 8 10 13 20 25 24 22 21 19 17 14 8 9 11 5 2 9 19 26 31 33 34 35 35 34 34 35 34
18 19 19 19 19 18 18 16 14 13 11 9 7 6 6 7 6 7 7 7 7 6 5 5 6 7 7 6 6 6 7 6 7 6 6 5 5 7 11 19 22 22 24 25 26 26 24 24 23 17 7 8 10 8 9 6 3 8 12 9 9 11 14 18 22 23 23 24 23 15 9 7 10 13 4 2 13 25 31 33 33 34 35 34 33 33 34 33
18 19 20 20 19 19 18 17 15 13 11 9 7 5 5 6 6 6 7 7 7 6 4 4 6 7 7 6 3 3 3 7 8 7 6 3 2 3 6 13 18 22 24 26 28 28 27 25 23 18 9 7 9 10 9 5 4 10 12 13 12 14 15 17 18 21 24 25 26 17 8 11 14 10 4 7 20 31 34 33 34 34 34 33 31 31 34 33
18 19 20 20 20 19 18 17 15 13 12 10 6 4 4 5 5 6 7 7 6 5 3 4 5 7 7 7 5 4 4 9 9 7 5 3 3 3 4 8 13 20 25 27 30 30 26 22 19 14 6 5 5 7 7 5 10 9 12 12 12 15 12 14 14 18 19 16 26 25 12 14 13 4 5 14 25 34 37 34 34 34 32 32 30 31 32 32
18 19 20 20 19 18 18 17 15 13 11 9 5 3 3 4 5 6 7 7 5 5 4 4 5 7 7 10 12 7 6 8 8 7 7 5 5 5 4 6 9 16 23 27 29 28 24 19 16 11 5 4 5 6 5 8 10 7 18 10 9 11 8 11 9 14 13 9 26 28 12 9 8 6 10 18 26 34 37 35 34 32 31 31 30 31 31 31
18 19 19 20 19 18 17 16 15 13 11 8 4 2 3 4 5 6 6 6 6 5 5 4 5 6 6 10 9 7 7 6 8 10 9 6 5 6 8 9 9 12 19 25 27 25 23 18 13 10 9 7 6 5 7 8 2 12 11 6 9 6 4 10 9 11 7 10 27 20 5 6 5 11 17 17 26 34 35 34 33 31 30 31 30 31 31 31
18 18 19 19 19 18 17 16 14 12 10 7 4 2 3 3 4 5 6 6 6 5 4 3 4 4 6 8 4 9 10 9 9 11 10 8 7 8 12 12 11 14 18 22 24 22 20 16 9 10 13 12 9 7 7 3 4 7 3 3 5 3 5 9 11 11 5 12 23 8 2 6 3 13 17 14 25 34 32 31 32 31 30 31 31 31 31 31
17 18 18 19 18 17 16 15 14 11 9 7 4 3 3 4 4 5 6 5 5 5 4 3 3 5 8 9 4 9 12 12 11 9 9 9 8 8 12 15 14 16 18 21 22 19 16 13 10 10 12 13 10 5 3 3 2 2 3 1 1 3 5 6 11 13 5 10 16 2 1 4 3 12 16 16 25 32 30 27 30 31 30 31 31 31 30 30
17 18 18 18 18 17 16 15 13 10 8 7 5 5 4 5 6 6 6 5 5 5 4 3 4 5 8 6 5 7 8 11 10 7 9 11 8 6 9 13 14 15 17 19 20 18 16 11 10 11 11 8 4 2 3 3 3 1 3 2 3 4 3 4 8 12 8 8 11 4 2 2 3 10 16 19 27 31 27 23 27 29 30 32 31 32 30 29
17 18 18 18 17 16 16 14 12 9 8 7 6 6 6 6 7 8 7 6 6 6 6 6 7 8 7 3 3 3 3 8 9 7 9 9 5 4 9 14 13 15 16 15 15 16 14 9 7 7 7 3 3 4 4 1 1 2 1 3 5 4 5 4 4 10 11 10 9 5 3 3 5 12 16 22 30 30 26 24 24 26 28 31 32 32 30 29
17 18 18 18 16 16 15 13 10 8 7 7 7 7 7 7 8 7 6 7 7 6 7 7 6 5 4 2 2 2 2 5 9 8 7 7 6 5 10 12 11 13 11 8 10 12 11 8 4 2 2 2 3 4 4 4 5 5 3 3 3 3 7 7 5 9 12 10 9 6 3 4 9 14 16 25 31 29 27 26 25 24 24 28 31 32 30 30
17 18 18 17 16 15 14 12 8 6 6 7 9 8 6 9 8 4 5 9 8 4 5 5 4 3 5 8 8 6 5 5 8 9 8 8 10 10 9 8 8 11 9 4 6 9 8 4 3 3 3 5 4 5 6 6 6 5 4 4 5 5 5 6 4 8 14 9 7 7 4 6 11 13 15 22 28 26 25 24 24 22 20 24 29 30 30 31
16 18 18 16 15 13 12 10 6 6 6 7 10 8 5 7 5 2 8 13 12 9 10 11 11 12 13 12 10 9 6 5 10 11 10 8 11 14 12 8 6 8 7 4 4 6 7 4 3 5 6 6 6 7 6 5 5 3 2 2 5 6 4 6 3 6 13 8 7 8 4 7 11 10 12 20 23 21 21 21 22 23 19 22 28 28 28 31
16 17 17 15 13 12 11 8 5 6 7 7 9 8 6 7 4 4 11 14 14 13 13 12 12 15 14 10 8 11 9 3 9 12 10 10 13 12 12 9 4 4 4 4 3 2 5 5 6 6 6 6 5 5 5 4 3 1 1 2 3 5 5 7 5 7 11 6 5 7 5 7 11 9 11 18 18 18 24 25 25 25 21 20 28 29 25 27
15 16 16 14 11 10 8 7 6 7 8 8 9 8 8 10 8 9 11 11 15 16 12 10 10 14 13 9 8 9 7 4 6 10 9 11 15 11 9 7 4 2 3 2 1 1 2 4 7 7 5 4 2 3 5 3 4 3 2 3 3 4 2 3 5 10 11 5 4 7 6 6 9 9 11 15 16 19 27 29 29 28 22 21 30 33 26 25
15 15 14 12 10 9 7 7 7 7 9 9 10 11 11 11 10 12 11 9 13 14 11 10 10 12 11 8 5 4 5 5 6 8 8 11 17 15 10 6 4 3 1 2 4 2 3 5 7 7 3 3 4 2 3 1 1 3 3 3 3 4 2 1 4 8 5 1 3 6 4 3 6 6 9 14 14 12 16 20 24 24 19 21 31 33 29 26
14 14 13 10 9 8 7 7 7 8 9 7 9 12 11 9 8 9 9 6 7 8 7 8 8 10 10 5 2 2 5 7 8 9 9 12 16 13 9 7 4 3 2 3 6 4 5 7 4 4 4 4 5 4 2 2 3 2 5 4 4 3 4 5 4 5 4 5 4 7 3 2 5 5 6 9 7 6 11 16 19 20 17 19 27 30 30 29
13 13 12 9 8 8 7 6 6 8 8 6 8 10 9 9 7 6 6 3 3 5 4 4 6 7 7 2 2 3 4 8 10 10 11 14 14 9 5 7 5 3 4 4 5 4 7 9 3 4 3 4 5 5 4 5 2 2 3 8 8 4 8 12 11 8 2 4 2 6 3 2 4 6 7 6 4 7 13 17 20 21 17 17 23 28 29 30
12 12 12 10 8 8 7 5 5 8 8 6 8 9 9 9 7 5 4 3 2 4 3 2 3 3 3 2 3 4 2 4 8 11 13 15 14 8 4 4 3 3 5 3 3 2 4 5 4 4 4 5 5 6 4 7 3 3 4 8 8 6 11 13 13 9 4 3 5 7 2 1 4 7 8 9 8 9 11 14 20 23 20 18 21 26 30 31
11 11 11 11 10 10 9 7 7 9 7 7 10 8 7 7 6 6 5 4 2 3 2 2 2 1 2 3 5 6 2 2 5 9 14 15 14 10 5 2 2 3 4 3 2 3 3 4 4 5 5 5 5 6 5 8 6 3 5 6 6 8 13 14 14 9 2 2 7 7 3 1 3 6 7 11 11 11 11 12 17 23 24 22 21 24 29 31
12 11 11 11 12 11 11 11 10 8 7 9 11 7 6 7 7 5 3 4 2 3 2 3 3 3 4 4 5 5 1 1 3 6 14 16 13 9 5 4 5 4 3 5 3 4 3 4 5 7 5 4 6 6 6 8 5 6 6 5 6 9 13 14 11 5 2 5 3 8 6 1 3 3 7 10 11 12 14 14 15 21 26 26 24 23 26 29
12 12 11 12 12 13 13 12 10 8 9 11 10 9 10 9 6 2 3 2 2 2 1 1 3 5 5 3 4 5 4 1 1 5 13 15 12 7 3 6 7 3 3 4 5 5 3 6 8 7 6 5 7 8 7 9 6 7 6 4 2 8 11 11 8 4 4 3 3 8 8 3 3 2 5 9 10 13 14 12 14 21 27 29 27 26 25 24
13 13 12 12 12 13 12 9 9 10 11 11 11 13 11 6 1 4 3 1 1 2 2 1 3 2 2 1 1 4 4 2 2 5 8 10 10 5 2 5 5 2 2 2 3 6 8 11 9 5 7 8 9 10 10 12 10 5 4 3 3 4 5 4 3 4 5 2 7 9 10 5 2 3 6 8 6 9 13 11 13 19 25 29 29 28 28 24
13 13 13 13 12 13 11 9 9 11 11 10 14 15 8 1 3 5 1 1 1 3 3 3 3 1 3 3 0 2 2 3 2 5 5 4 4 2 2 2 1 2 3 4 3 6 6 7 6 6 12 12 7 7 7 11 12 6 2 3 4 2 2 4 4 3 4 5 8 9 9 5 3 4 5 6 3 3 11 12 13 17 22 28 28 28 32 30
12 14 14 13 12 11 10 8 9 11 11 12 17 14 3 1 3 3 1 3 1 3 3 4 3 1 3 1 0 2 1 2 1 5 4 3 2 2 2 2 2 1 3 3 2 5 3 5 4 4 11 11 7 3 2 5 8 6 3 4 4 2 1 1 1 2 4 6 4 7 9 3 5 4 2 6 5 4 11 13 16 18 21 26 27 27 33 35
11 13 13 13 12 9 7 6 9 11 11 15 17 9 3 4 3 1 2 2 1 2 3 4 3 1 3 2 2 2 0 2 1 2 2 3 2 0 2 2 3 3 2 3 1 4 2 5 4 2 5 8 9 5 2 3 5 7 5 5 4 4 3 3 3 1 4 6 4 5 11 3 4 2 4 7 7 8 15 18 22 25 26 28 28 27 30 35
10 12 12 12 10 7 4 5 9 10 12 17 13 4 6 5 1 2 2 2 2 3 3 4 3 4 4 1 2 1 1 2 1 4 4 4 3 2 4 5 3 2 2 2 1 0 2 4 4 3 3 4 8 8 7 6 5 5 4 5 5 4 4 4 5 4 4 3 4 2 6 2 1 1 7 8 4 6 14 18 22 26 28 28 27 26 27 30
9 10 11 10 8 5 3 4 7 9 13 16 9 5 5 2 3 2 2 3 2 3 4 4 5 6 5 4 4 2 2 1 3 6 4 4 3 2 1 3 5 2 2 2 2 1 3 4 6 5 6 3 4 6 8 8 4 3 3 5 3 4 4 2 4 5 4 3 2 1 1 2 2 2 7 7 8 9 10 12 16 20 23 25 23 23 24 24
8 8 9 8 6 4 3 3 6 8 12 11 6 4 2 2 3 1 2 1 1 2 3 5 7 6 4 4 5 6 4 3 3 4 3 3 3 3 0 2 4 3 1 3 2 1 1 4 6 5 5 3 3 4 6 7 5 2 2 4 4 4 5 3 1 1 4 5 0 1 1 3 1 1 7 9 11 12 12 11 11 13 18 20 19 20 21 22
7 7 8 6 4 4 4 3 5 8 10 7 5 1 2 3 2 2 2 1 1 2 4 4 4 3 2 3 3 6 5 3 3 3 2 1 2 3 3 3 4 2 2 1 2 2 3 3 5 3 4 5 2 3 1 2 5 4 3 5 3 2 3 2 2 2 4 3 1 1 0 2 1 1 5 8 10 10 9 10 12 12 14 15 15 19 23 25
6 6 6 4 4 5 6 5 6 8 6 6 3 3 1 1 3 3 4 1 1 3 5 3 1 1 1 2 2 5 5 3 3 3 2 2 1 1 2 3 5 6 8 4 1 1 2 1 6 1 2 7 3 5 3 4 3 5 4 3 2 2 1 0 2 2 2 2 0 2 2 1 1 1 3 6 8 8 8 9 11 12 12 12 14 18 20 21
7 5 2 3 4 6 6 7 8 6 4 4 2 3 1 2 5 8 8 3 2 5 4 2 1 1 1 1 1 4 5 3 2 3 2 2 1 1 2 1 5 9 11 5 2 1 1 2 4 5 3 4 5 4 1 4 4 4 3 2 2 3 3 2 2 3 4 3 2 2 2 2 2 2 1 4 5 7 8 8 10 13 12 10 11 13 12 13
8 5 1 2 4 7 7 8 6 2 3 1 2 2 2 3 4 13 15 6 1 3 2 2 1 2 1 1 1 2 4 3 2 3 2 2 1 2 4 3 3 8 9 5 3 1 1 3 1 7 6 3 2 2 0 2 1 2 3 2 1 1 1 2 1 1 4 5 3 3 0 4 3 1 4 6 4 5 7 9 10 13 14 12 9 8 9 9
7 4 1 1 1 5 7 6 3 2 2 1 2 2 3 2 3 12 16 10 4 3 3 3 2 2 1 2 3 2 3 3 3 3 2 2 2 0 5 5 3 5 5 5 4 2 1 2 0 3 5 3 1 3 3 3 5 4 3 1 1 2 2 3 0 2 2 4 4 5 3 4 2 2 5 6 6 5 9 13 12 13 16 15 11 9 9 9
5 2 1 1 3 3 4 2 1 0 1 2 2 3 3 2 2 8 13 12 7 4 2 2 2 1 1 1 1 2 3 3 4 3 2 1 1 1 6 11 8 5 3 1 3 3 0 2 2 1 2 2 5 6 5 1 3 4 3 2 0 1 2 4 3 2 2 4 2 3 2 2 1 3 4 6 10 12 15 17 15 13 15 16 13 11 10 8
6 4 2 2 3 4 4 0 4 3 2 3 3 2 2 3 4 6 9 9 7 4 3 2 1 1 1 0 1 3 3 3 4 3 0 1 2 3 9 16 13 6 3 2 3 4 1 2 3 3 3 4 5 5 3 5 6 4 3 4 2 1 0 3 5 3 4 4 2 3 2 2 2 4 5 7 11 13 15 18 18 15 12 13 13 12 11 10
6 5 4 4 1 5 5 2 2 3 4 3 1 2 3 5 6 6 5 5 5 3 2 2 0 1 1 1 2 3 2 3 2 3 1 1 2 7 14 18 15 7 4 2 2 4 3 1 2 3 2 4 5 5 6 7 5 2 2 4 4 3 2 3 2 3 3 3 4 5 2 2 2 4 5 6 8 8 9 13 19 18 13 13 13 12 12 11
5 3 4 6 4 5 3 2 3 3 2 1 2 3 3 4 6 8 5 5 7 6 2 3 3 2 2 2 3 4 4 4 1 2 3 1 3 8 14 17 15 9 6 6 3 2 2 2 2 3 3 2 2 2 3 4 3 2 3 5 6 4 2 4 2 4 2 2 3 4 3 2 3 4 5 5 6 7 7 10 16 18 15 13 13 13 12 12
4 2 5 7 6 4 2 4 1 2 2 3 2 3 4 2 3 9 10 7 8 9 6 4 5 4 5 4 4 5 5 4 2 2 3 3 3 3 9 15 18 15 13 15 12 2 3 3 2 5 5 3 3 3 4 2 2 3 4 6 7 5 1 4 4 2 4 4 2 1 6 9 7 7 7 6 6 7 8 11 14 16 16 15 14 14 13 14
3 2 2 5 5 4 4 5 4 2 3 4 2 1 3 2 2 7 10 6 7 8 6 6 7 4 3 4 4 4 5 5 5 3 2 3 3 3 7 12 17 18 14 15 15 5 4 4 3 5 4 1 2 5 5 1 1 3 4 6 7 6 4 4 4 3 6 6 1 4 9 13 11 10 8 7 6 6 8 12 14 16 17 17 16 16 15 16
3 1 2 4 3 1 2 6 6 6 6 5 3 1 2 4 3 3 4 5 9 8 4 5 8 6 4 3 4 3 5 4 5 4 3 4 3 4 8 7 10 16 13 10 11 6 5 2 2 3 4 4 4 6 6 2 2 3 5 6 7 7 4 5 3 2 5 5 4 8 11 10 10 10 8 7 7 8 11 14 16 18 19 18 18 18 17 16
4 1 2 6 2 5 4 8 6 5 7 4 3 2 1 3 3 1 1 3 6 7 5 4 5 7 8 6 5 4 4 3 3 4 2 3 3 2 5 4 6 14 13 6 6 5 3 1 3 3 3 6 8 7 5 4 5 5 7 7 7 6 6 8 5 4 6 5 6 12 10 5 4 8 8 8 11 14 16 18 18 19 18 18 18 19 17 16
5 3 4 6 3 5 8 7 1 5 5 3 3 2 1 3 2 1 3 4 2 4 5 5 2 4 7 7 7 4 1 4 4 2 1 1 2 1 1 2 3 8 10 4 4 6 3 2 3 3 4 5 9 9 7 5 7 7 8 10 10 8 6 7 4 4 8 8 9 13 11 5 5 10 13 14 16 18 18 18 18 17 17 18 18 17 17 17
4 5 7 5 2 6 9 6 2 4 3 2 2 1 1 2 1 1 3 5 4 2 1 5 4 3 5 7 7 3 1 4 4 2 1 1 0 1 0 0 1 2 6 4 3 5 4 2 3 4 5 2 5 7 7 5 7 8 9 12 13 9 4 4 2 1 6 10 10 11 8 4 6 12 17 18 19 19 17 18 19 17 16 18 18 17 16 17
3 3 6 3 1 5 6 4 3 4 2 1 1 3 2 1 1 3 4 5 6 7 6 6 6 4 4 5 5 4 5 4 3 4 3 4 5 3 3 5 6 4 2 2 2 3 2 2 2 3 3 0 2 3 3 4 6 5 6 8 9 7 2 4 5 5 4 10 9 6 5 6 9 13 14 13 15 16 17 19 21 20 19 19 19 18 17 16
Wind_Direction
338 337 337 337 334 331 331 331 333 336 339 333 328 328 328 328 321 315 314 312 306 295 286 281 277 276 276 279 277 274 271 263 262 257 249 234 213 216 205 192 192 186 180 181 178 177 181 181 178 177 180 187 203 215 211 216 221 212 203 202 247 237 181 186 161 149 141 138 151 156 152 140 138 147 127 127 133 133 134 130 131 132 139 149 153 155 159 159
342 342 340 339 336 332 329 327 327 329 333 332 326 323 321 322 322 318 314 312 308 298 289 284 279 276 277 283 287 288 281 267 260 255 244 220 209 209 201 189 189 187 182 187 185 180 181 178 177 176 178 187 207 216 215 213 201 194 187 177 227 219 185 158 143 141 144 147 148 150 152 139 137 151 141 134 137 132 123 123 124 123 132 145 151 156 161 162
346 346 344 343 340 337 333 329 327 325 325 325 322 320 317 315 319 319 315 315 313 301 291 287 281 277 280 286 294 299 294 282 265 256 240 219 211 201 200 193 188 190 187 190 188 182 180 177 178 178 180 193 215 216 225 211 194 201 205 260 249 212 158 143 145 144 147 147 141 141 144 135 138 149 147 140 134 132 131 138 135 131 138 147 155 160 162 164
351 350 350 349 347 344 341 336 331 326 323 319 318 318 312 307 312 316 315 316 317 307 292 288 281 275 282 288 299 305 306 305 269 241 220 214 211 201 199 194 192 192 185 186 188 181 177 177 178 180 183 203 229 225 237 215 191 192 197 230 238 182 111 149 147 140 145 146 136 135 137 136 150 154 147 141 134 140 153 154 150 145 147 153 159 162 164 167
354 354 354 354 353 352 350 346 338 333 327 318 315 314 308 300 301 308 312 315 318 314 298 289 280 273 283 290 300 303 316 332 210 183 177 186 197 205 200 194 194 193 184 182 185 178 174 174 175 180 184 210 233 220 244 223 205 213 222 231 203 158 114 146 145 140 145 143 133 137 141 141 148 147 151 150 144 161 163 161 158 153 154 158 161 164 167 168
357 357 356 356 356 355 356 354 345 338 331 322 313 306 301 293 294 300 306 315 317 318 306 289 281 277 283 290 300 296 285 257 163 157 153 167 185 197 196 194 192 193 189 183 182 179 174 170 172 181 186 221 230 214 247 229 212 240 263 236 194 164 140 142 143 143 145 140 140 148 144 137 128 132 153 156 139 154 165 165 159 157 158 160 163 164 167 170
1 360 359 358 358 357 357 356 350 343 336 327 309 295 292 287 290 297 304 314 315 319 311 290 283 281 287 290 297 291 271 249 168 150 138 149 173 182 189 193 191 193 191 185 183 180 175 172 176 183 184 223 229 228 249 239 213 222 266 220 173 157 146 147 144 146 145 138 148 147 135 136 129 136 159 156 144 155 164 163 158 157 158 159 163 165 169 172
2 360 359 358 358 358 356 356 352 347 341 329 312 294 290 287 288 295 303 311 312 321 314 290 280 280 287 288 295 295 278 246 171 158 147 132 146 167 184 191 192 193 191 187 183 178 176 179 184 184 184 227 232 232 245 251 221 218 240 190 155 154 149 148 144 144 135 131 151 142 123 131 127 133 154 158 154 157 160 160 157 156 158 160 163 167 171 173
359 356 355 354 354 355 355 355 351 349 344 332 320 302 294 288 286 293 299 308 314 319 313 291 276 275 281 285 294 300 277 212 183 183 164 145 132 151 181 192 194 193 192 190 184 181 182 185 189 186 184 233 241 243 254 253 220 226 218 179 143 150 149 145 144 143 130 132 150 137 115 144 135 132 141 206 156 156 159 158 158 158 160 162 164 169 172 174
354 351 349 348 349 350 351 352 350 348 344 337 328 306 294 287 288 291 295 309 314 312 313 291 272 270 278 278 282 290 234 174 179 178 164 178 176 163 186 197 200 197 193 191 188 187 186 187 191 191 202 249 240 246 257 207 254 271 208 166 141 144 147 146 146 143 134 137 147 140 142 165 155 145 165 176 154 154 157 158 161 161 162 165 166 171 174 175
351 348 346 345 345 346 348 350 349 346 343 342 334 309 295 285 284 286 297 314 317 312 307 290 276 269 275 266 237 219 185 166 169 172 179 222 259 257 226 210 209 203 197 193 192 189 187 188 189 191 214 266 268 274 263 221 287 278 160 136 128 135 140 146 146 145 138 139 147 141 146 165 167 190 188 160 154 157 158 158 163 163 165 168 169 172 173 175
351 349 348 347 345 346 347 349 350 347 343 343 339 315 279 268 279 295 310 321 322 315 299 295 286 273 276 267 247 220 173 166 175 190 205 224 261 273 241 224 219 209 202 196 193 188 187 189 189 200 235 290 317 316 291 299 309 162 138 116 121 129 139 149 149 155 144 145 150 139 133 168 174 196 179 157 154 159 157 158 163 164 168 170 172 173 173 175
353 353 352 351 350 351 350 351 352 350 345 342 338 293 258 265 292 308 318 322 328 322 306 305 296 286 281 270 246 193 176 183 187 194 202 215 234 227 212 215 218 209 206 200 193 189 191 194 199 234 277 298 302 292 292 315 47 138 132 115 132 123 163 160 156 163 142 151 157 142 135 193 171 168 172 159 156 159 157 159 164 165 169 171 174 175 175 178
356 356 356 356 356 357 354 353 354 352 349 347 342 304 280 289 304 315 321 322 330 325 313 312 308 304 272 260 194 168 195 206 202 195 197 215 217 211 203 200 204 200 202 202 197 197 200 204 227 271 284 278 265 277 304 339 108 129 88 73 136 144 185 165 158 163 133 167 170 144 120 196 171 160 165 161 157 157 157 161 166 168 171 173 176 178 178 182
357 358 359 360 1 1 358 355 356 356 356 359 2 342 318 318 319 321 321 319 327 322 318 317 314 319 291 274 186 175 201 207 212 202 200 215 211 222 210 194 194 192 195 200 201 206 205 211 243 269 276 269 252 265 330 5 20 106 114 31 233 152 170 166 166 171 145 179 189 171 96 183 172 158 155 160 160 156 159 165 167 170 174 175 178 181 182 186
357 359 1 1 3 4 1 359 1 2 8 17 18 5 351 336 325 319 316 310 313 315 320 321 311 317 304 278 193 185 205 207 216 217 213 216 214 239 212 188 190 188 193 199 203 208 206 221 258 255 258 256 208 142 50 23 359 360 123 164 198 152 165 168 175 182 146 159 206 222 154 142 158 153 141 157 163 159 163 169 167 170 174 176 178 181 184 187
358 360 3 2 2 4 4 4 4 6 16 25 19 8 360 338 320 314 312 303 298 301 306 297 289 291 282 257 194 191 200 199 210 220 217 211 208 226 190 179 182 184 189 195 204 215 217 235 258 248 245 210 132 101 87 71 190 225 82 149 193 173 169 166 173 181 150 156 202 203 144 122 144 148 146 166 170 166 171 174 170 168 172 177 178 181 185 185
356 359 3 2 360 2 5 5 7 14 19 26 21 9 7 354 332 306 296 300 298 303 306 285 279 295 271 275 302 324 339 209 212 224 228 209 183 193 186 174 174 176 176 185 205 219 226 237 220 215 256 168 116 102 142 202 178 177 184 159 189 188 185 183 168 170 161 172 196 186 167 137 138 149 165 179 175 173 178 177 174 169 170 179 180 183 186 186
355 357 1 1 359 1 7 8 14 25 18 17 14 13 21 8 351 308 292 296 282 288 310 265 249 288 277 287 299 318 323 237 222 226 228 214 186 191 194 175 172 167 148 146 206 210 207 220 190 180 224 197 170 149 169 192 153 147 169 154 167 193 210 201 183 168 165 172 194 193 185 148 150 158 172 184 181 180 180 178 180 176 173 180 183 185 189 189
354 357 359 0 357 359 10 14 18 24 18 13 8 14 21 360 352 317 310 296 280 286 295 277 269 275 279 286 292 315 320 215 220 222 216 219 198 194 201 195 177 159 140 144 196 204 184 194 218 200 209 202 185 174 168 153 118 98 101 117 182 193 216 215 205 171 163 165 200 194 166 153 162 162 172 182 184 183 182 182 187 185 182 185 185 186 190 194
354 357 359 359 354 357 12 20 15 10 11 12 7 7 357 351 354 332 326 312 307 310 297 287 282 275 279 288 295 317 323 242 220 215 208 218 202 194 205 200 155 149 192 183 187 210 166 195 231 219 213 204 181 162 154 139 125 136 137 119 198 201 220 220 188 166 167 166 194 172 147 170 168 160 174 179 181 188 187 186 190 190 189 191 189 188 191 194
353 358 1 359 351 353 8 18 9 359 358 360 1 2 357 355 341 326 330 314 311 316 303 292 285 278 284 301 313 315 302 272 244 220 206 206 199 195 195 181 137 177 225 162 162 294 183 229 242 230 222 207 200 140 144 174 163 171 169 135 196 217 221 228 177 165 171 174 181 165 158 175 169 163 173 179 187 197 193 189 190 190 189 190 188 191 199 196
351 359 2 0 352 344 351 3 1 0 360 1 8 12 7 356 331 317 319 296 297 308 296 281 280 282 296 318 338 301 233 221 246 222 197 192 193 190 176 154 139 186 214 138 160 171 202 245 240 224 212 194 246 216 143 249 198 151 151 144 223 225 149 236 188 161 167 238 148 147 140 138 155 162 173 185 192 197 200 198 192 192 197 193 189 195 205 198
348 357 0 1 357 342 334 342 353 360 358 6 15 12 8 358 332 310 312 292 286 303 291 276 277 280 292 326 41 276 224 213 226 205 186 188 182 175 172 160 141 174 224 173 163 174 230 253 231 180 180 185 231 253 185 225 268 187 166 182 239 227 97 73 99 96 14 339 81 105 104 148 164 176 178 186 182 163 192 203 197 199 208 199 194 201 207 200
344 354 354 357 1 350 331 323 339 348 347 360 2 357 360 355 340 318 322 328 287 306 323 287 276 276 281 310 141 220 212 209 215 196 187 191 180 160 165 168 151 197 224 163 153 191 249 260 235 149 183 190 214 249 203 173 238 301 195 203 222 200 100 92 100 98 45 294 140 121 158 200 183 195 187 175 170 176 192 202 203 204 205 197 195 201 203 198
336 345 346 347 352 353 339 320 325 332 337 349 344 342 347 347 346 331 338 34 341 307 333 306 283 276 261 248 194 183 175 217 213 198 192 193 189 171 157 165 148 195 200 161 167 210 247 240 185 172 200 188 209 245 209 158 156 293 239 209 207 155 117 121 132 141 174 217 156 140 156 193 193 211 193 168 179 194 197 205 209 207 205 200 193 193 196 191
324 332 338 338 338 344 342 327 320 323 329 338 338 339 344 349 350 333 347 43 3 299 292 268 268 243 229 237 194 159 118 268 210 205 198 191 191 179 173 204 160 191 181 146 214 234 222 204 172 188 197 183 211 236 207 152 142 243 242 205 186 144 138 153 159 163 180 92 134 160 176 129 211 213 178 166 182 195 199 208 212 210 209 207 198 189 189 187
311 319 326 329 331 334 333 326 322 326 327 330 334 330 329 334 326 323 39 75 327 300 287 252 247 252 253 257 220 181 193 219 152 207 203 192 188 175 178 198 163 191 188 147 220 256 201 188 189 191 196 201 216 227 197 153 160 246 238 207 190 162 158 167 167 159 54 50 143 192 188 185 270 220 153 163 187 199 202 205 207 208 209 210 206 193 184 183
301 308 314 321 326 325 327 333 337 338 325 322 332 325 316 314 309 344 90 89 310 288 283 270 266 261 250 249 243 232 240 262 113 202 197 190 190 178 186 206 184 204 232 173 215 258 240 226 214 185 191 213 216 226 197 163 192 241 221 215 170 153 166 168 160 133 68 37 241 203 188 193 283 247 157 170 201 209 204 201 203 206 206 208 210 200 186 180
293 297 305 311 319 321 328 344 347 336 324 325 331 328 323 309 331 68 55 27 347 273 263 255 266 248 188 121 304 259 242 265 248 192 181 179 189 187 161 202 191 169 277 260 231 248 260 261 252 199 201 212 211 221 197 178 204 226 190 194 74 116 166 145 114 107 92 286 247 207 189 182 263 253 186 183 211 204 192 192 198 203 205 205 208 202 190 184
289 289 296 302 311 317 323 340 346 335 329 328 328 331 337 339 85 78 52 276 304 312 320 270 255 123 146 151 194 255 239 271 236 156 162 167 175 194 94 159 192 62 338 328 293 270 265 258 255 212 213 209 196 220 201 184 205 219 165 141 93 62 35 40 42 107 141 234 239 199 177 173 230 247 210 221 272 168 182 193 191 196 203 204 205 201 193 191
289 284 287 294 302 307 313 331 339 335 333 331 331 333 350 69 28 59 275 300 329 311 305 272 268 123 167 164 240 229 212 285 216 133 153 148 136 196 139 174 189 91 319 284 291 307 274 230 246 235 225 202 165 205 214 170 196 197 150 116 117 134 78 60 194 173 201 242 253 172 155 164 238 234 263 259 263 174 181 192 189 191 198 202 204 201 196 196
291 281 280 286 291 295 307 326 327 330 339 338 335 339 83 79 33 326 298 325 319 278 276 279 287 117 123 78 316 256 292 287 227 99 55 84 98 320 9 324 181 138 243 218 262 332 313 273 280 288 252 202 167 173 175 172 186 181 167 148 154 158 143 180 197 184 229 255 311 155 157 186 259 242 330 293 263 202 184 186 189 191 196 200 203 201 198 198
297 282 278 280 279 283 297 317 321 329 342 342 342 17 68 58 301 308 331 279 276 298 303 311 336 42 64 45 264 222 72 312 51 77 40 41 47 19 14 333 296 143 167 189 265 229 167 267 251 203 247 198 172 182 171 160 172 187 174 143 152 169 151 174 189 190 207 233 340 79 158 193 237 267 307 307 292 184 173 180 186 190 194 197 198 199 199 199
299 281 276 274 264 259 262 298 317 329 339 345 1 71 65 27 256 301 295 255 290 317 309 343 28 43 22 341 318 351 56 360 38 67 53 47 50 50 94 301 317 1 117 164 251 192 152 244 249 239 249 211 183 196 160 131 147 217 151 121 165 193 161 149 173 177 158 118 8 344 186 249 201 272 323 358 46 77 111 143 165 176 186 188 190 194 196 195
299 284 272 263 247 228 228 274 301 319 336 357 38 65 51 218 225 227 240 246 347 316 329 7 30 42 6 350 343 334 359 56 54 55 56 79 68 36 91 251 319 352 142 165 216 289 120 250 275 306 294 238 185 200 172 152 171 205 121 156 210 180 146 143 138 105 91 100 218 261 301 307 296 8 355 25 54 60 69 89 114 144 165 175 180 185 191 196
302 287 267 250 213 196 216 260 294 312 337 24 71 32 249 215 225 237 270 49 56 2 54 44 15 37 3 345 339 323 343 34 43 47 51 70 59 10 338 291 302 315 279 200 182 193 143 251 289 355 337 290 200 135 100 136 139 130 163 209 207 110 98 120 117 41 53 96 228 300 360 311 11 77 352 22 54 58 62 74 78 100 134 150 164 179 191 200
319 295 265 234 189 205 229 261 289 305 343 46 43 312 250 240 303 318 318 345 75 42 69 87 14 84 71 7 327 326 359 32 24 50 61 27 24 314 350 307 300 337 341 346 128 180 106 298 289 281 272 299 333 90 42 346 50 123 165 196 131 132 234 70 147 151 90 106 194 16 4 321 157 183 341 25 59 69 71 77 72 78 100 127 159 177 186 191
340 325 267 193 202 224 242 261 278 303 13 51 355 293 264 265 313 358 9 15 92 67 76 138 139 88 60 68 281 330 27 42 19 62 71 35 37 295 9 331 306 346 356 9 94 306 54 114 283 292 293 315 359 60 95 307 341 52 68 19 64 149 172 160 167 154 127 137 159 66 6 285 221 206 116 67 65 76 81 82 80 82 91 118 158 173 173 177
345 349 87 163 227 235 249 267 281 343 57 74 207 238 289 272 324 13 26 38 93 70 94 202 145 81 19 355 305 351 46 33 23 73 57 25 83 302 343 8 319 334 348 19 71 4 360 91 260 302 328 14 25 18 141 206 217 54 43 21 344 327 161 145 98 87 122 137 151 123 172 264 260 189 144 118 83 75 92 92 85 83 87 101 127 141 144 156
351 2 91 91 273 244 243 256 281 83 117 250 214 236 291 289 345 12 26 41 49 64 114 159 134 119 129 19 3 8 54 28 19 75 69 20 92 75 341 354 331 324 346 15 27 14 5 60 92 312 353 27 247 273 277 219 180 146 99 91 223 233 149 129 75 333 98 124 149 147 172 256 266 142 150 134 114 100 100 98 92 90 97 105 113 121 135 147
355 348 166 16 325 264 221 220 301 359 175 250 247 245 289 346 18 12 21 29 32 42 80 119 119 118 147 132 23 33 67 40 5 44 90 19 105 133 340 351 360 2 32 27 309 302 189 98 60 306 297 270 253 266 287 284 139 128 88 45 68 157 116 131 178 229 85 88 92 106 120 267 243 149 160 140 131 128 119 113 108 104 108 113 116 118 128 141
342 330 352 341 287 206 170 279 321 312 256 255 262 266 355 22 21 21 22 19 21 26 27 47 110 91 56 205 69 56 65 55 11 5 65 292 351 19 2 9 20 23 38 40 307 314 352 78 37 323 296 308 294 284 336 33 63 72 21 14 13 318 55 142 168 160 122 132 118 78 82 240 191 155 156 141 130 126 122 119 116 111 110 111 112 115 117 121
345 339 18 34 79 165 165 212 255 270 278 279 328 28 51 53 37 25 19 12 10 10 13 7 16 123 102 14 77 84 90 86 37 349 7 198 355 15 17 22 32 34 17 358 281 318 355 47 58 27 358 351 342 342 3 12 27 40 318 324 330 335 60 113 114 69 100 180 154 117 145 216 167 152 153 144 127 113 111 119 119 117 116 113 109 111 113 112
1 340 359 30 84 152 194 233 186 195 250 37 43 6 20 51 41 34 39 35 27 37 53 340 336 61 62 36 65 61 60 85 96 341 16 360 338 13 21 27 35 32 6 352 315 295 23 35 79 91 104 107 48 18 350 330 331 335 321 327 334 344 81 139 116 69 113 188 117 119 160 149 137 161 170 164 141 121 112 108 109 112 116 114 109 108 110 109
30 9 338 10 60 99 302 298 231 176 152 94 51 3 21 26 7 30 45 43 23 38 55 9 350 34 33 33 64 46 31 48 59 47 30 348 313 357 18 29 33 23 13 14 10 25 105 44 65 112 112 147 183 228 248 274 338 345 336 340 339 329 7 118 106 109 166 141 57 216 163 139 154 185 181 169 148 133 122 107 104 109 111 110 107 107 109 108
41 45 343 358 20 26 357 338 356 65 124 103 90 9 28 13 318 20 38 35 14 29 48 21 18 48 28 31 76 44 5 18 26 27 17 339 295 309 1 26 31 20 19 21 13 27 111 38 33 93 76 136 225 288 292 295 20 360 349 346 343 340 8 86 111 173 155 124 39 232 166 149 169 184 173 166 153 133 124 117 114 114 113 111 108 107 111 111
26 16 39 24 349 298 352 330 342 39 74 81 75 69 35 40 42 24 17 21 22 28 50 25 19 45 58 64 102 51 4 22 20 355 346 350 337 341 355 7 20 17 22 28 18 45 114 40 14 78 36 20 24 348 337 50 76 13 10 2 347 349 36 78 78 129 135 139 187 179 158 153 166 164 155 161 152 130 121 121 118 115 113 113 111 108 111 114
28 23 12 17 339 234 278 302 308 55 67 60 52 54 85 71 58 349 318 31 21 13 52 70 10 28 50 59 92 74 14 51 37 345 334 1 352 7 5 337 349 11 20 28 15 38 110 355 1 94 50 12 25 9 350 44 63 19 9 13 357 358 62 82 72 71 79 85 127 131 121 96 124 143 142 145 140 126 120 120 117 114 112 111 110 108 109 112
40 43 346 352 322 282 320 332 9 85 57 44 64 62 97 84 61 336 15 60 60 346 33 91 73 37 55 57 76 88 160 149 126 347 311 52 1 24 43 289 289 357 15 25 348 7 53 346 337 78 84 9 10 7 352 29 61 36 6 5 359 357 37 68 83 88 75 71 91 106 102 80 115 132 127 130 131 125 123 123 117 113 113 111 110 107 107 111
62 45 0 349 332 335 346 355 52 84 52 40 97 111 25 29 29 118 37 45 95 137 110 136 131 59 40 45 57 54 252 173 167 284 267 158 50 233 230 312 201 354 9 16 348 359 36 23 343 52 89 48 1 356 335 354 43 36 11 360 350 343 12 57 30 62 113 117 110 107 115 139 150 133 124 130 136 132 130 128 121 117 116 112 109 108 108 109
78 50 357 342 327 353 358 348 10 69 86 269 134 103 63 357 10 93 84 40 60 102 119 126 116 77 34 35 29 351 341 345 335 346 22 77 74 101 116 78 79 82 31 23 30 9 30 66 35 54 90 145 332 346 326 2 31 14 344 342 326 307 352 58 25 9 99 131 133 141 160 160 144 134 129 135 140 136 135 133 129 127 122 115 112 110 111 113